User: anonymous   Login
Location: Laterina
(43.5167°N, 11.7167°E)
Time: 09:54:10
(UTC+00:00)
Language:

Nadezhda 4 Rocket - Orbit

View from above orbital plane
View from above orbital plane
View from above satellite
View from above satellite

Ground track
Ground track

The orbit data is extracted from the following two-line orbital elements,

1 23180U 94041B   20336.53949729 +.00000058 +00000-0 +42314-4 0  9995
2 23180 082.9480 070.9249 0027606 282.5917 088.4318 13.77983530326631
Epoch (UTC): 01 December 2020 12:56:52
Eccentricity: 0.0027606
inclination: 82.9480°
perigee height: 951 km
apogee height: 991 km
right ascension of ascending node: 70.9249°
argument of perigee: 282.5917°
revolutions per day: 13.77983530
mean anomaly at epoch: 88.4318°
orbit number at epoch: 32663

The dashed part of the orbit path shows where the satellite is in the earth's shadow,  

DLR